Precipitable_Water
1.90 1.73 1.51 1.38 1.31 1.34 1.44 1.57 1.80 1.89 1.96 1.94 1.97 2.00 1.93 1.78 1.74 1.85 1.77 1.69 1.68 1.65
1.79 1.56 1.35 1.41 1.37 1.41 1.49 1.57 1.72 1.60 1.57 1.61 1.59 1.57 1.51 1.46 1.49 1.47 1.45 1.53 1.53 1.57
1.46 1.31 1.39 1.38 1.40 1.46 1.56 1.55 1.40 1.32 1.27 1.22 1.21 1.20 1.20 1.16 1.20 1.19 1.25 1.29 1.33 1.47
1.26 1.32 1.40 1.37 1.43 1.42 1.31 1.22 1.18 1.19 1.17 1.17 1.18 1.21 1.20 1.22 1.21 1.18 1.18 1.23 1.24 1.31
1.24 1.32 1.29 1.31 1.30 1.27 1.25 1.22 1.19 1.23 1.26 1.25 1.25 1.28 1.28 1.24 1.25 1.21 1.20 1.18 1.15 1.12
1.22 1.26 1.24 1.26 1.28 1.29 1.28 1.28 1.28 1.26 1.23 1.23 1.24 1.25 1.25 1.25 1.20 1.19 1.16 1.12 1.06 1.01
1.25 1.30 1.33 1.37 1.38 1.36 1.33 1.30 1.27 1.26 1.23 1.20 1.19 1.18 1.18 1.17 1.13 1.07 1.00 0.93 0.86 0.77
1.30 1.37 1.40 1.39 1.36 1.35 1.33 1.28 1.25 1.22 1.21 1.19 1.09 0.96 1.07 1.01 0.87 0.78 0.70 0.69 0.67 0.58
1.36 1.37 1.37 1.34 1.33 1.35 1.30 1.25 1.23 1.16 1.10 1.00 0.82 0.68 0.60 0.66 0.67 0.68 0.66 0.67 0.68 0.71
1.34 1.35 1.35 1.35 1.33 1.28 1.21 1.20 1.11 1.03 0.94 0.88 0.71 0.54 0.55 0.62 0.71 0.69 0.66 0.66 0.64 0.63
1.36 1.37 1.40 1.33 1.26 1.22 1.19 1.08 0.92 0.80 0.75 0.80 0.71 0.60 0.59 0.56 0.74 0.75 0.75 0.72 0.72 0.72
1.43 1.39 1.34 1.27 1.24 1.19 1.01 0.81 0.72 0.74 0.73 0.76 0.82 0.62 0.59 0.56 0.71 0.80 0.82 0.84 0.81 0.76
1.47 1.41 1.33 1.30 1.19 0.97 0.82 0.72 0.74 0.75 0.79 0.70 0.79 0.62 0.58 0.61 0.68 0.68 0.68 0.69 0.69 0.73
1.48 1.41 1.35 1.23 1.00 0.85 0.76 0.78 0.72 0.74 0.79 0.77 0.76 0.79 0.70 0.60 0.53 0.55 0.56 0.49 0.52 0.65
Wind_Speed
10 10 10 11 11 8 7 7 8 9 9 9 10 11 13 13 13 13 13 14 15 16
9 9 9 9 8 7 7 8 10 10 10 10 10 10 11 11 12 14 15 15 16 16
7 8 7 7 7 7 8 8 9 9 9 10 10 11 11 12 13 14 15 16 17 16
6 6 6 6 6 6 7 8 9 10 10 11 12 12 13 14 15 15 16 16 16 16
5 4 4 4 5 6 8 9 10 11 12 13 14 14 15 16 17 17 18 18 18 18
3 3 3 5 6 8 9 11 12 13 14 14 15 15 16 17 18 18 19 19 19 19
3 4 5 6 7 9 11 13 14 15 15 16 17 17 18 19 19 19 18 18 18 18
5 5 7 8 10 11 13 14 15 17 17 18 18 19 20 19 19 18 18 18 17 17
7 7 8 9 11 12 14 16 17 18 18 18 19 20 20 19 18 18 18 18 19 19
9 10 10 11 12 15 17 18 19 19 18 19 20 19 19 18 18 18 20 20 20 21
11 11 12 12 14 16 18 19 19 19 19 19 19 19 19 20 20 20 21 22 23 24
12 12 13 14 16 18 19 20 19 19 19 20 19 19 20 21 22 22 24 25 26 27
13 13 14 15 17 19 20 19 19 19 20 20 20 20 21 22 24 25 26 27 28 29
14 14 15 16 18 19 19 19 20 20 20 21 21 21 23 24 25 26 27 29 30 30
Wind_Direction
287 299 308 316 323 322 334 337 334 327 319 312 304 300 301 302 303 303 305 303 300 300
286 297 305 314 322 317 313 323 324 323 321 318 312 308 305 305 305 306 305 305 305 302
287 294 305 310 317 316 316 320 324 326 324 322 318 314 309 308 309 308 309 307 307 304
291 294 297 308 317 322 323 325 326 324 322 321 318 314 311 310 311 310 310 309 307 305
281 283 295 307 322 325 324 322 320 318 316 315 313 312 311 310 309 308 308 307 305 302
262 274 294 307 316 318 319 319 318 316 314 313 314 312 312 310 308 306 305 304 302 301
258 280 293 306 314 318 319 318 318 317 313 311 311 311 311 310 307 306 305 304 304 303
260 282 296 307 313 314 317 317 317 315 311 308 308 311 311 310 309 307 306 306 305 305
272 283 294 300 307 310 315 315 316 314 311 311 310 311 309 310 308 308 307 306 304 301
276 283 293 298 304 309 313 315 315 314 313 312 311 310 309 307 305 305 305 304 304 303
275 285 291 296 304 309 312 314 314 314 314 312 312 308 307 306 303 303 303 303 302 300
277 283 288 295 303 308 312 313 313 312 313 312 310 307 306 306 304 301 303 301 300 299
278 281 289 296 303 307 311 311 310 311 312 311 310 308 307 306 306 305 304 303 302 298
276 283 290 297 303 306 308 309 310 311 310 309 309 309 308 307 306 306 305 304 304 302